DW9167 Weather Reports


Display with metric or nautical units.
time (UTC)temp
F
wind
direction
speed
MPH
gust
MPH
rain 1hr
in
rain 24hr
in
rain mn
in
humidity
%
barometer
mb
20260510175430 81 174 1.0 5.0 0.00 0.10 0.00 75 1005.6
20260510174528 80 135 0.0 3.0 0.00 0.10 0.00 76 1006.2
20260510173528 81 169 1.0 3.0 0.00 0.10 0.00 77 1006.2
20260510172529 79 135 0.0 2.0 0.00 0.10 0.00 81 1006.6
20260510171527 79 186 2.0 5.0 0.00 0.10 0.00 81 1006.6
20260510171431 79 180 0.0 1.0 0.00 0.10 0.00 80 1006.6
20260510170527 79 140 3.0 5.0 0.00 0.10 0.00 81 1006.6
20260510165529 79 90 2.0 5.0 0.00 0.10 0.00 81 1006.6
20260510164627 78 180 0.0 0.0 0.00 0.10 0.00 87 1006.9
20260510163629 77 157 1.0 4.0 0.00 0.10 0.00 88 1006.9
20260510162628 77 171 2.0 4.0 0.00 0.10 0.00 88 1006.9
20260510161630 77 180 0.0 0.0 0.00 0.10 0.00 93 1006.9
20260510160630 76 180 0.0 2.0 0.00 0.10 0.00 94 1007.3
20260510154730 75 135 1.0 2.0 0.00 0.10 0.00 93 1006.9
20260510153731 75 172 0.0 3.0 0.00 0.10 0.00 94 1006.9
20260510152728 75 135 0.0 4.0 0.00 0.10 0.00 95 1006.9
20260510151728 75 180 0.0 2.0 0.00 0.10 0.00 96 1006.9
20260510150730 74 157 2.0 4.0 0.00 0.10 0.00 96 1006.9
20260510145731 74 112 1.0 2.0 0.00 0.10 0.00 96 1006.9
20260510144730 74 180 0.0 2.0 0.00 0.10 0.00 97 1006.6
20260510143828 73 180 1.0 4.0 0.00 0.10 0.00 97 1006.9
20260510142830 72 180 0.0 0.0 0.00 0.10 0.00 97 1006.9
20260510141830 72 180 0.0 0.0 0.00 0.10 0.00 97 1006.6
20260510135930 71 67 0.0 0.0 0.00 0.10 0.00 96 1006.2
20260510134929 70 67 0.0 0.0 0.00 0.10 0.00 96 1006.2
20260510133929 70 180 0.0 0.0 0.00 0.10 0.00 94 1006.2
20260510132928 68 135 0.0 0.0 0.00 0.10 0.00 90 1006.2
20260510131929 69 135 0.0 0.0 0.00 0.10 0.00 90 1005.9
20260510130929 68 135 0.0 0.0 0.00 0.10 0.00 87 1006.2
20260510125928 68 135 0.0 0.0 0.00 0.10 0.00 86 1005.9
20260510125027 67 137 0.0 1.0 0.00 0.10 0.00 86 1005.6
20260510124030 67 135 0.0 0.0 0.00 0.10 0.00 86 1005.6
20260510123128 66 135 0.0 0.0 0.00 0.10 0.00 87 1005.6
20260510122127 67 180 0.0 0.0 0.00 0.10 0.00 90 1005.6
20260510121132 67 180 0.0 0.0 0.00 0.10 0.00 91 1005.6
20260510115229 67 180 0.0 0.0 0.00 0.10 0.00 95 1004.9
20260510114328 68 180 0.0 0.0 0.00 0.10 0.00 95 1004.9
20260510113328 68 157 0.0 0.0 0.00 0.10 0.00 96 1004.9
20260510112427 68 180 0.0 2.0 0.00 0.10 0.00 96 1004.9
20260510111427 69 180 0.0 0.0 0.00 0.10 0.00 96 1004.5
20260510110428 68 166 2.0 6.0 0.00 0.10 0.00 96 1004.3
20260510105429 69 177 1.0 5.0 0.00 0.10 0.00 97 1004.5
20260510104428 68 155 2.0 5.0 0.00 0.10 0.00 97 1004.2
20260510103429 68 180 1.0 4.0 0.00 0.10 0.00 97 1004.2
20260510102428 68 180 0.0 3.0 0.00 0.10 0.00 96 1004.2
20260510101428 68 172 0.0 3.0 0.00 0.10 0.00 96 1004.2
20260510100429 68 205 1.0 3.0 0.00 0.10 0.00 96 1004.2
20260510093430 67 180 2.0 4.0 0.00 0.10 0.00 96 1004.2
20260510091529 67 180 1.0 2.0 0.00 0.10 0.00 96 1004.2
20260510090627 67 180 2.0 5.0 0.00 0.10 0.00 96 1004.2
20260510085631 67 135 0.0 0.0 0.00 0.10 0.00 97 1004.5
20260510084627 67 157 0.0 1.0 0.00 0.10 0.00 97 1004.5
20260510083629 67 157 0.0 0.0 0.00 0.10 0.00 97 1004.5
20260510082727 67 157 0.0 0.0 0.00 0.10 0.00 97 1004.5
20260510080826 68 157 0.0 0.0 0.00 0.10 0.00 96 1004.9
20260510075827 68 157 0.0 0.0 0.00 0.10 0.00 96 1004.2
20260510074829 69 180 0.0 0.0 0.00 0.10 0.00 95 1004.5
20260510073827 68 180 0.0 0.0 0.00 0.10 0.00 93 1004.2
20260510072828 69 180 0.0 2.0 0.00 0.10 0.00 93 1004.2
20260510071828 69 180 2.0 3.0 0.00 0.10 0.00 92 1004.2
20260510070828 69 157 0.0 0.0 0.00 0.10 0.00 91 1004.5
20260510065927 69 180 0.0 0.0 0.00 0.10 0.00 92 1004.2
20260510065828 69 180 0.0 0.0 0.00 0.10 0.00 92 1004.2
20260510064828 70 180 0.0 0.0 0.00 0.10 0.00 92 1004.2
20260510063927 70 180 0.0 0.0 0.00 0.10 0.00 91 1004.2
20260510062929 70 180 0.0 0.0 0.00 0.10 0.00 91 1004.2
20260510061929 70 180 0.0 0.0 0.00 0.10 0.00 90 1004.2
20260510060928 70 157 0.0 0.0 0.00 0.10 0.00 89 1004.2
20260510055929 71 157 0.0 0.0 0.00 0.10 0.00 89 1003.8
20260510054929 71 157 1.0 2.0 0.00 0.10 0.00 90 1003.8
20260510053929 70 157 0.0 0.0 0.00 0.10 0.00 91 1004.2
20260510053027 71 157 0.0 0.0 0.00 0.10 0.00 94 1004.2
20260510051027 71 157 0.0 0.0 0.00 0.10 0.00 93 1004.2
20260510050127 71 157 0.0 0.0 0.00 0.10 0.00 92 1003.8
20260510045109 72 157 0.0 0.0 0.00 0.10 0.10 92 1003.5
20260510044106 72 157 0.0 0.0 0.00 0.10 0.10 91 1003.5
20260510043106 73 157 0.0 0.0 0.00 0.10 0.10 91 1003.8
20260510042107 73 157 0.0 0.0 0.00 0.10 0.10 91 1003.5
20260510041106 73 157 0.0 0.0 0.00 0.10 0.10 92 1003.2
20260510040109 73 157 0.0 0.0 0.00 0.10 0.10 92 1003.2
20260510035205 73 157 0.0 0.0 0.00 0.10 0.10 91 1003.2
20260510034206 73 157 0.0 0.0 0.00 0.10 0.10 92 1003.2
20260510033208 73 157 0.0 0.0 0.00 0.10 0.10 91 1003.2
20260510032208 74 157 0.0 0.0 0.00 0.10 0.10 90 1002.8
20260510031208 74 157 0.0 0.0 0.00 0.10 0.10 87 1002.8
20260510025207 76 157 0.0 0.0 0.00 0.10 0.10 87 1002.4
20260510024208 76 157 0.0 0.0 0.00 0.10 0.10 87 1002.1
20260510023307 76 135 0.0 0.0 0.00 0.10 0.10 85 1002.1
20260510022308 77 180 0.0 0.0 0.00 0.10 0.10 85 1002.1
20260510021407 77 180 0.0 0.0 0.00 0.10 0.10 83 1002.1
20260510020408 78 180 0.0 2.0 0.00 0.10 0.10 83 1001.7
20260510014407 79 180 1.0 4.0 0.00 0.10 0.10 79 1001.4
20260510013408 79 135 0.0 0.0 0.00 0.10 0.10 76 1001.4
20260510012507 80 135 0.0 0.0 0.00 0.10 0.10 72 1001.4
20260510011510 81 135 0.0 0.0 0.00 0.10 0.10 70 1001.1
20260510010508 81 135 0.0 0.0 0.00 0.10 0.10 69 1000.7
20260510005507 82 135 0.0 0.0 0.00 0.10 0.10 68 1000.7
20260510003506 84 135 1.0 3.0 0.00 0.10 0.10 65 1000.4
20260510002510 85 135 1.0 4.0 0.00 0.10 0.10 64 1000.0
20260510001607 86 135 0.0 0.0 0.00 0.10 0.10 63 1000.0
20260509235706 87 157 0.0 0.0 0.00 0.10 0.10 59 999.4
20260509234708 89 157 0.0 0.0 0.00 0.10 0.10 58 999.4
20260509232807 89 167 0.0 1.0 0.00 0.10 0.10 56 999.4
20260509231809 88 180 0.0 1.0 0.00 0.10 0.10 59 999.4
20260509230906 89 180 0.0 1.0 0.00 0.10 0.10 55 999.4
20260509223909 89 270 0.0 0.0 0.00 0.10 0.10 53 999.4
20260509222908 89 270 0.0 0.0 0.00 0.10 0.10 51 999.4
20260509221907 90 270 0.0 0.0 0.00 0.10 0.10 50 999.0
20260509220007 88 180 0.0 0.0 0.00 0.10 0.10 47 999.4
20260509215106 87 157 0.0 0.0 0.00 0.10 0.10 50 999.4
20260509214105 87 157 0.0 1.0 0.00 0.10 0.10 50 999.7
20260509213106 86 157 0.0 2.0 0.00 0.10 0.10 55 1000.4
20260509210108 82 157 0.0 0.0 0.00 0.10 0.10 64 1000.7
20260509205206 81 176 0.0 4.0 0.03 0.10 0.10 69 1000.4
20260509204305 80 180 0.0 0.0 0.10 0.10 0.10 77 1000.7
20260509203308 78 174 1.0 5.0 0.10 0.10 0.10 77 1001.5
20260509201306 70 135 0.0 0.0 0.10 0.10 0.10 92 1003.2
20260509200307 71 148 2.0 5.0 0.10 0.10 0.10 91 1003.5
20260509194305 77 55 3.0 5.0 0.00 0.00 0.00 68 1001.5
20260509193307 85 157 0.0 0.0 0.00 0.00 0.00 70 1000.5
20260509192406 87 286 0.0 0.0 0.00 0.00 0.00 63 1000.4
20260509191407 88 180 0.0 0.0 0.00 0.00 0.00 63 1000.7
20260509190408 88 157 0.0 0.0 0.00 0.00 0.00 63 1000.7
20260509185405 89 289 0.0 3.0 0.00 0.00 0.00 61 1000.0
20260509183506 88 157 0.0 0.0 0.00 0.00 0.00 62 1000.7
20260509181507 85 286 1.0 3.0 0.00 0.00 0.00 68 1001.4
20260509180506 87 252 0.0 5.0 0.00 0.00 0.00 69 1001.4
20260509180405 87 315 0.0 0.0 0.00 0.00 0.00 68 1001.4